Location: ????????
(55.1591°N, 39.1782°E)
Time: 17:45:33
(UTC+00:00)

Meteor 2-4 Rocket - Pass Details

Date: 14 April 2024
Orbit: 799 x 907 km, 81.2° (Epoch: 23 May)

Event Time Altitude Azimuth Distance (km) Brightness Sun altitude
Rises 01:18:46 0° 190° (S) 3,312 6.4 -9.0°
Reaches altitude 10° 01:21:07 10° 190° (S) 2,394 5.7 -8.7°
Maximum altitude 01:26:31 85° 103° (ESE) 835 3.8 -8.0°
Drops below altitude 10° 01:32:08 10° 15° (NNE) 2,473 6.8 -7.3°
Sets 01:34:35 0° 15° (NNE) 3,429 7.6 -7.0°
